Time,TemperatureF,DewpointF,PressureIn,WindDirection,WindDirectionDegrees,WindSpeedMPH,WindSpeedGustMPH,Humidity,HourlyPrecipIn,Conditions,Clouds,dailyrainin,SoftwareType,DateUTC
2013-09-01 00:10:00,90.6,68.0,29.77,South,185,1.0,6.0,48,0.00,,,0.00,weatherlink.com 1.10,2013-09-01 07:10:00,
2013-09-01 00:25:00,89.7,69.0,29.77,ESE,118,3.0,4.0,50,0.00,,,0.00,weatherlink.com 1.10,2013-09-01 07:25:00,
2013-09-01 00:40:00,89.2,69.0,29.76,SSE,167,2.0,4.0,51,0.00,,,0.00,weatherlink.com 1.10,2013-09-01 07:40:00,
2013-09-01 00:55:00,88.6,69.0,29.76,ESE,117,3.0,3.0,52,0.00,,,0.00,weatherlink.com 1.10,2013-09-01 07:55:00,
2013-09-01 01:10:00,88.5,69.0,29.76,ESE,121,1.0,4.0,52,0.00,,,0.00,weatherlink.com 1.10,2013-09-01 08:10:00,
2013-09-01 01:25:00,88.2,69.0,29.76,ESE,120,2.0,3.0,53,0.00,,,0.00,weatherlink.com 1.10,2013-09-01 08:25:00,
2013-09-01 01:40:00,87.9,69.0,29.76,SE,138,0.0,3.0,53,0.00,,,0.00,weatherlink.com 1.10,2013-09-01 08:40:00,
2013-09-01 01:55:00,87.7,68.0,29.75,SE,134,2.0,2.0,53,0.00,,,0.00,weatherlink.com 1.10,2013-09-01 08:55:00,
2013-09-01 02:10:00,87.7,68.0,29.75,SSE,156,0.0,2.0,53,0.00,,,0.00,weatherlink.com 1.10,2013-09-01 09:10:00,
2013-09-01 02:25:00,88.2,68.0,29.75,SW,214,0.0,3.0,52,0.00,,,0.00,weatherlink.com 1.10,2013-09-01 09:25:00,
2013-09-01 02:40:00,86.9,69.0,29.75,SSE,153,0.0,1.0,55,0.00,,,0.00,weatherlink.com 1.10,2013-09-01 09:40:00,
2013-09-01 02:55:00,86.0,69.0,29.75,ESE,122,0.0,2.0,58,0.00,,,0.00,weatherlink.com 1.10,2013-09-01 09:55:00,
2013-09-01 03:10:00,85.7,69.0,29.75,SSE,149,2.0,2.0,58,0.00,,,0.00,weatherlink.com 1.10,2013-09-01 10:10:00,
2013-09-01 03:25:00,85.7,70.0,29.75,ESE,105,0.0,1.0,59,0.00,,,0.00,weatherlink.com 1.10,2013-09-01 10:25:00,
2013-09-01 03:40:00,84.7,69.0,29.75,ESE,108,0.0,1.0,59,0.00,,,0.00,weatherlink.com 1.10,2013-09-01 10:40:00,
2013-09-01 03:55:00,84.8,69.0,29.76,SE,129,1.0,2.0,60,0.00,,,0.00,weatherlink.com 1.10,2013-09-01 10:55:00,
2013-09-01 04:10:00,85.6,69.0,29.76,SE,127,1.0,2.0,57,0.00,,,0.00,weatherlink.com 1.10,2013-09-01 11:10:00,
2013-09-01 04:25:00,85.5,69.0,29.76,SE,125,0.0,0.0,58,0.00,,,0.00,weatherlink.com 1.10,2013-09-01 11:25:00,
2013-09-01 04:40:00,85.7,69.0,29.76,SE,125,0.0,1.0,58,0.00,,,0.00,weatherlink.com 1.10,2013-09-01 11:40:00,
2013-09-01 04:55:00,85.2,69.0,29.76,ESE,123,0.0,1.0,59,0.00,,,0.00,weatherlink.com 1.10,2013-09-01 11:55:00,
2013-09-01 05:10:00,85.1,70.0,29.76,SE,131,0.0,2.0,60,0.00,,,0.00,weatherlink.com 1.10,2013-09-01 12:10:00,
2013-09-01 05:25:00,84.7,70.0,29.77,SE,131,0.0,1.0,61,0.00,,,0.00,weatherlink.com 1.10,2013-09-01 12:25:00,
2013-09-01 05:40:00,84.8,69.0,29.77,SE,145,0.0,1.0,60,0.00,,,0.00,weatherlink.com 1.10,2013-09-01 12:40:00,
2013-09-01 05:56:00,85.4,69.0,29.77,SSE,162,0.0,1.0,58,0.00,,,0.00,weatherlink.com 1.10,2013-09-01 12:56:00,
2013-09-01 06:11:00,85.5,69.0,29.77,NNW,347,1.0,1.0,59,0.00,,,0.00,weatherlink.com 1.10,2013-09-01 13:11:00,
2013-09-01 06:26:00,85.2,70.0,29.78,NNW,347,0.0,0.0,60,0.00,,,0.00,weatherlink.com 1.10,2013-09-01 13:26:00,
2013-09-01 06:41:00,85.0,70.0,29.78,North,3,0.0,2.0,61,0.00,,,0.00,weatherlink.com 1.10,2013-09-01 13:41:00,
2013-09-01 06:56:00,86.1,70.0,29.79,NNW,333,0.0,3.0,59,0.00,,,0.00,weatherlink.com 1.10,2013-09-01 13:56:00,
2013-09-01 07:11:00,87.0,70.0,29.79,NNE,25,0.0,4.0,57,0.00,,,0.00,weatherlink.com 1.10,2013-09-01 14:11:00,
2013-09-01 07:26:00,87.3,70.0,29.80,SE,135,0.0,1.0,57,0.00,,,0.00,weatherlink.com 1.10,2013-09-01 14:26:00,
2013-09-01 07:41:00,89.8,69.0,29.80,SE,135,0.0,0.0,51,0.00,,,0.00,weatherlink.com 1.10,2013-09-01 14:41:00,
2013-09-01 07:56:00,91.4,71.0,29.80,ESE,103,0.0,1.0,52,0.00,,,0.00,weatherlink.com 1.10,2013-09-01 14:56:00,
2013-09-01 08:11:00,90.7,71.0,29.80,NE,49,0.0,1.0,53,0.00,,,0.00,weatherlink.com 1.10,2013-09-01 15:11:00,
2013-09-01 08:26:00,92.3,70.0,29.80,NNW,328,1.0,2.0,49,0.00,,,0.00,weatherlink.com 1.10,2013-09-01 15:26:00,
2013-09-01 08:41:00,94.6,71.0,29.81,North,357,0.0,1.0,46,0.00,,,0.00,weatherlink.com 1.10,2013-09-01 15:41:00,
2013-09-01 08:56:00,95.5,70.0,29.81,ENE,77,1.0,1.0,44,0.00,,,0.00,weatherlink.com 1.10,2013-09-01 15:56:00,
2013-09-01 09:11:00,95.8,71.0,29.80,ESE,109,0.0,2.0,44,0.00,,,0.00,weatherlink.com 1.10,2013-09-01 16:11:00,
2013-09-01 09:26:00,96.5,70.0,29.80,NW,320,1.0,2.0,42,0.00,,,0.00,weatherlink.com 1.10,2013-09-01 16:26:00,
2013-09-01 09:41:00,95.4,70.0,29.80,NNE,18,0.0,2.0,44,0.00,,,0.00,weatherlink.com 1.10,2013-09-01 16:41:00,
2013-09-01 09:56:00,94.8,70.0,29.80,East,89,2.0,3.0,45,0.00,,,0.00,weatherlink.com 1.10,2013-09-01 16:56:00,
2013-09-01 10:11:00,95.5,70.0,29.80,NE,39,0.0,3.0,44,0.00,,,0.00,weatherlink.com 1.10,2013-09-01 17:11:00,
2013-09-01 10:26:00,95.7,70.0,29.80,East,83,1.0,2.0,44,0.00,,,0.00,weatherlink.com 1.10,2013-09-01 17:26:00,
2013-09-01 10:41:00,96.6,70.0,29.80,ESE,107,1.0,2.0,42,0.00,,,0.00,weatherlink.com 1.10,2013-09-01 17:41:00,
2013-09-01 10:56:00,97.2,70.0,29.80,ESE,106,3.0,4.0,42,0.00,,,0.00,weatherlink.com 1.10,2013-09-01 17:56:00,
2013-09-01 11:11:00,101.0,70.0,29.79,WSW,253,1.0,2.0,37,0.00,,,0.00,weatherlink.com 1.10,2013-09-01 18:11:00,
2013-09-01 11:26:00,101.1,69.0,29.79,East,101,1.0,5.0,35,0.00,,,0.00,weatherlink.com 1.10,2013-09-01 18:26:00,
2013-09-01 11:41:00,101.7,68.0,29.79,ENE,63,1.0,4.0,33,0.00,,,0.00,weatherlink.com 1.10,2013-09-01 18:41:00,
2013-09-01 11:56:00,100.8,67.0,29.78,ENE,62,3.0,6.0,33,0.00,,,0.00,weatherlink.com 1.10,2013-09-01 18:56:00,
2013-09-01 12:11:00,101.9,67.0,29.78,South,174,2.0,5.0,32,0.00,,,0.00,weatherlink.com 1.10,2013-09-01 19:11:00,
2013-09-01 12:26:00,102.9,67.0,29.77,East,93,3.0,4.0,31,0.00,,,0.00,weatherlink.com 1.10,2013-09-01 19:26:00,
2013-09-01 12:41:00,103.3,66.0,29.77,East,83,2.0,6.0,30,0.00,,,0.00,weatherlink.com 1.10,2013-09-01 19:41:00,
2013-09-01 12:57:00,102.8,66.0,29.76,SSE,149,2.0,6.0,30,0.00,,,0.00,weatherlink.com 1.10,2013-09-01 19:57:00,
2013-09-01 13:11:00,103.4,66.0,29.76,East,96,0.0,7.0,30,0.00,,,0.00,weatherlink.com 1.10,2013-09-01 20:11:00,
2013-09-01 13:26:00,104.5,67.0,29.75,ENE,73,1.0,6.0,30,0.00,,,0.00,weatherlink.com 1.10,2013-09-01 20:26:00,
2013-09-01 13:41:00,104.1,68.0,29.75,NE,42,1.0,5.0,31,0.00,,,0.00,weatherlink.com 1.10,2013-09-01 20:41:00,
2013-09-01 13:56:00,104.7,68.0,29.74,NE,52,2.0,8.0,30,0.00,,,0.00,weatherlink.com 1.10,2013-09-01 20:56:00,
2013-09-01 14:11:00,103.9,67.0,29.73,East,91,5.0,7.0,30,0.00,,,0.00,weatherlink.com 1.10,2013-09-01 21:11:00,
2013-09-01 14:27:00,104.2,67.0,29.73,NNW,345,5.0,5.0,30,0.00,,,0.00,weatherlink.com 1.10,2013-09-01 21:27:00,
2013-09-01 14:42:00,103.7,67.0,29.72,ESE,117,3.0,8.0,30,0.00,,,0.00,weatherlink.com 1.10,2013-09-01 21:42:00,
2013-09-01 14:57:00,104.5,66.0,29.72,SSE,152,0.0,7.0,29,0.00,,,0.00,weatherlink.com 1.10,2013-09-01 21:57:00,
2013-09-01 15:12:00,104.2,66.0,29.71,SW,230,1.0,8.0,29,0.00,,,0.00,weatherlink.com 1.10,2013-09-01 22:12:00,
2013-09-01 15:27:00,104.2,66.0,29.70,ESE,120,0.0,5.0,29,0.00,,,0.00,weatherlink.com 1.10,2013-09-01 22:27:00,
2013-09-01 15:42:00,104.7,67.0,29.70,SSE,163,3.0,3.0,29,0.00,,,0.00,weatherlink.com 1.10,2013-09-01 22:42:00,
2013-09-01 15:57:00,102.6,66.0,29.70,East,96,1.0,5.0,30,0.00,,,0.00,weatherlink.com 1.10,2013-09-01 22:57:00,
2013-09-01 16:12:00,102.1,65.0,29.69,SE,139,0.0,4.0,30,0.00,,,0.00,weatherlink.com 1.10,2013-09-01 23:12:00,
2013-09-01 16:27:00,102.0,67.0,29.68,SSW,194,0.0,2.0,32,0.00,,,0.00,weatherlink.com 1.10,2013-09-01 23:27:00,
2013-09-01 16:42:00,102.2,67.0,29.68,East,82,2.0,2.0,32,0.00,,,0.00,weatherlink.com 1.10,2013-09-01 23:42:00,
2013-09-01 16:57:00,103.4,67.0,29.67,NE,49,0.0,3.0,31,0.00,,,0.00,weatherlink.com 1.10,2013-09-01 23:57:00,
2013-09-01 17:12:00,103.1,67.0,29.67,North,8,2.0,5.0,31,0.00,,,0.00,weatherlink.com 1.10,2013-09-02 00:12:00,
2013-09-01 17:27:00,102.0,66.0,29.67,East,89,1.0,4.0,31,0.00,,,0.00,weatherlink.com 1.10,2013-09-02 00:27:00,
2013-09-01 17:42:00,101.6,67.0,29.67,North,11,0.0,2.0,32,0.00,,,0.00,weatherlink.com 1.10,2013-09-02 00:42:00,
2013-09-01 17:57:00,101.3,66.0,29.67,North,9,0.0,2.0,32,0.00,,,0.00,weatherlink.com 1.10,2013-09-02 00:57:00,
2013-09-01 18:12:00,100.8,67.0,29.67,North,9,0.0,1.0,33,0.00,,,0.00,weatherlink.com 1.10,2013-09-02 01:12:00,
2013-09-01 18:27:00,100.3,67.0,29.68,North,9,0.0,0.0,34,0.00,,,0.00,weatherlink.com 1.10,2013-09-02 01:27:00,
2013-09-01 18:42:00,99.8,67.0,29.68,North,9,0.0,0.0,34,0.00,,,0.00,weatherlink.com 1.10,2013-09-02 01:42:00,
2013-09-01 18:57:00,99.6,68.0,29.68,North,9,0.0,0.0,36,0.00,,,0.00,weatherlink.com 1.10,2013-09-02 01:57:00,
2013-09-01 19:12:00,99.4,67.0,29.68,East,85,0.0,1.0,35,0.00,,,0.00,weatherlink.com 1.10,2013-09-02 02:12:00,
2013-09-01 19:27:00,98.5,68.0,29.68,East,85,0.0,0.0,37,0.00,,,0.00,weatherlink.com 1.10,2013-09-02 02:27:00,
2013-09-01 19:42:00,97.8,68.0,29.68,ENE,70,3.0,3.0,38,0.00,,,0.00,weatherlink.com 1.10,2013-09-02 02:42:00,
2013-09-01 19:57:00,99.3,66.0,29.69,NNE,13,3.0,6.0,33,0.00,,,0.00,weatherlink.com 1.10,2013-09-02 02:57:00,
2013-09-01 20:12:00,99.8,64.0,29.70,NW,312,5.0,10.0,31,0.00,,,0.00,weatherlink.com 1.10,2013-09-02 03:12:00,
2013-09-01 20:27:00,99.8,64.0,29.70,NW,321,5.0,13.0,31,0.00,,,0.00,weatherlink.com 1.10,2013-09-02 03:27:00,
2013-09-01 20:42:00,98.9,66.0,29.71,NW,312,4.0,11.0,34,0.00,,,0.00,weatherlink.com 1.10,2013-09-02 03:42:00,
2013-09-01 20:57:00,98.1,66.0,29.71,NE,38,0.0,2.0,35,0.00,,,0.00,weatherlink.com 1.10,2013-09-02 03:57:00,
2013-09-01 21:12:00,96.9,67.0,29.72,NNE,32,0.0,2.0,37,0.00,,,0.00,weatherlink.com 1.10,2013-09-02 04:12:00,
2013-09-01 21:27:00,95.4,67.0,29.72,SSE,156,0.0,1.0,39,0.00,,,0.00,weatherlink.com 1.10,2013-09-02 04:27:00,
2013-09-01 21:42:00,94.5,67.0,29.72,SW,229,0.0,2.0,40,0.00,,,0.00,weatherlink.com 1.10,2013-09-02 04:42:00,
2013-09-01 21:57:00,93.6,67.0,29.73,SE,145,0.0,1.0,41,0.00,,,0.00,weatherlink.com 1.10,2013-09-02 04:57:00,
2013-09-01 22:12:00,93.0,67.0,29.73,SSW,209,2.0,6.0,42,0.00,,,0.00,weatherlink.com 1.10,2013-09-02 05:12:00,
2013-09-01 22:27:00,93.4,67.0,29.73,South,178,1.0,6.0,42,0.00,,,0.00,weatherlink.com 1.10,2013-09-02 05:27:00,
2013-09-01 22:42:00,92.5,66.0,29.73,ESE,122,0.0,1.0,42,0.00,,,0.00,weatherlink.com 1.10,2013-09-02 05:42:00,
2013-09-01 22:57:00,91.8,68.0,29.74,SE,128,0.0,0.0,45,0.00,,,0.00,weatherlink.com 1.10,2013-09-02 05:57:00,
2013-09-01 23:12:00,90.8,67.0,29.74,SE,130,1.0,2.0,46,0.00,,,0.00,weatherlink.com 1.10,2013-09-02 06:12:00,
2013-09-01 23:27:00,90.5,68.0,29.74,SSE,153,1.0,2.0,47,0.00,,,0.00,weatherlink.com 1.10,2013-09-02 06:27:00,
2013-09-01 23:42:00,90.1,67.0,29.74,East,100,0.0,3.0,47,0.00,,,0.00,weatherlink.com 1.10,2013-09-02 06:42:00,
2013-09-01 23:57:00,89.7,67.0,29.74,ESE,109,1.0,3.0,47,0.00,,,0.00,weatherlink.com 1.10,2013-09-02 06:57:00,